| time (UTC) | temp F | wind direction | speed MPH | gust MPH | rain 1hr in | rain 24hr in | rain mn in | humidity % | barometer mb |
| 20260508153043 | 58 | 263 | 7.0 | 17.0 | 0.00 | 0.00 | 0.00 | 39 | 1012.1 |
| 20260508151537 | 57 | 269 | 8.0 | 16.0 | 0.00 | 0.00 | 0.00 | 40 | 1012.4 |
| 20260508150036 | 56 | 236 | 8.0 | 16.0 | 0.00 | 0.00 | 0.00 | 39 | 1012.5 |
| 20260508144530 | 55 | 286 | 7.0 | 17.0 | 0.00 | 0.00 | 0.00 | 40 | 1012.6 |
| 20260508143027 | 55 | 259 | 5.0 | 15.0 | 0.00 | 0.00 | 0.00 | 39 | 1012.7 |
| 20260508141524 | 54 | 253 | 7.0 | 14.0 | 0.00 | 0.00 | 0.00 | 39 | 1012.8 |
| 20260508140027 | 53 | 263 | 5.0 | 15.0 | 0.00 | 0.00 | 0.00 | 43 | 1012.9 |
| 20260508134527 | 51 | 219 | 8.0 | 13.0 | 0.00 | 0.00 | 0.00 | 43 | 1013.1 |
| 20260508133016 | 50 | 240 | 3.0 | 12.0 | 0.00 | 0.00 | 0.00 | 45 | 1013.1 |
| 20260508131514 | 50 | 220 | 6.0 | 13.0 | 0.00 | 0.00 | 0.00 | 44 | 1013.1 |
| 20260508130010 | 49 | 219 | 6.0 | 15.0 | 0.00 | 0.00 | 0.00 | 45 | 1013.0 |
| 20260508124511 | 48 | 242 | 7.0 | 10.0 | 0.00 | 0.00 | 0.00 | 47 | 1013.3 |
| 20260508123117 | 47 | 235 | 3.0 | 10.0 | 0.00 | 0.00 | 0.00 | 49 | 1013.3 |
| 20260508121504 | 47 | 269 | 3.0 | 8.0 | 0.00 | 0.00 | 0.00 | 50 | 1013.1 |
| 20260508120003 | 47 | 253 | 2.0 | 8.0 | 0.00 | 0.00 | 0.00 | 49 | 1013.0 |
| 20260508114501 | 45 | 238 | 5.0 | 9.0 | 0.00 | 0.00 | 0.00 | 51 | 1012.9 |
| 20260508113106 | 44 | 209 | 1.0 | 3.0 | 0.00 | 0.00 | 0.00 | 51 | 1012.9 |
| 20260508111558 | 44 | 209 | 0.0 | 8.0 | 0.00 | 0.00 | 0.00 | 51 | 1012.9 |
| 20260508110057 | 44 | 240 | 3.0 | 6.0 | 0.00 | 0.00 | 0.00 | 50 | 1012.8 |
| 20260508104554 | 44 | 251 | 3.0 | 6.0 | 0.00 | 0.00 | 0.00 | 50 | 1012.4 |
| 20260508103052 | 43 | 227 | 1.0 | 5.0 | 0.00 | 0.00 | 0.00 | 50 | 1012.4 |
| 20260508101549 | 44 | 229 | 1.0 | 3.0 | 0.00 | 0.00 | 0.00 | 50 | 1012.5 |
| 20260508100046 | 44 | 228 | 3.0 | 6.0 | 0.00 | 0.00 | 0.00 | 49 | 1012.5 |
| 20260508094606 | 44 | 228 | 0.0 | 5.0 | 0.00 | 0.00 | 0.00 | 49 | 1012.5 |
| 20260508093046 | 45 | 225 | 4.0 | 8.0 | 0.00 | 0.00 | 0.00 | 48 | 1012.7 |
| 20260508091544 | 45 | 228 | 3.0 | 6.0 | 0.00 | 0.00 | 0.00 | 48 | 1012.8 |
| 20260508090048 | 45 | 235 | 2.0 | 5.0 | 0.00 | 0.00 | 0.00 | 48 | 1012.9 |
| 20260508084540 | 45 | 239 | 3.0 | 7.0 | 0.00 | 0.00 | 0.00 | 48 | 1013.0 |
| 20260508083041 | 45 | 232 | 2.0 | 5.0 | 0.00 | 0.00 | 0.00 | 48 | 1012.8 |
| 20260508081558 | 45 | 228 | 3.0 | 7.0 | 0.00 | 0.00 | 0.00 | 48 | 1012.8 |
| 20260508080042 | 45 | 225 | 3.0 | 7.0 | 0.00 | 0.00 | 0.00 | 48 | 1012.7 |
| 20260508074535 | 45 | 212 | 2.0 | 5.0 | 0.00 | 0.00 | 0.00 | 47 | 1012.7 |
| 20260508073038 | 44 | 261 | 2.0 | 4.0 | 0.00 | 0.00 | 0.00 | 48 | 1012.4 |
| 20260508071541 | 44 | 263 | 2.0 | 4.0 | 0.00 | 0.00 | 0.00 | 48 | 1012.5 |
| 20260508070033 | 44 | 264 | 1.0 | 3.0 | 0.00 | 0.00 | 0.00 | 47 | 1012.5 |
| 20260508064532 | 45 | 264 | 1.0 | 3.0 | 0.00 | 0.00 | 0.00 | 46 | 1012.7 |
| 20260508063045 | 45 | 264 | 1.0 | 4.0 | 0.00 | 0.00 | 0.00 | 47 | 1012.9 |
| 20260508061530 | 44 | 268 | 2.0 | 4.0 | 0.00 | 0.00 | 0.00 | 49 | 1012.9 |
| 20260508060034 | 44 | 271 | 1.0 | 3.0 | 0.00 | 0.00 | 0.00 | 49 | 1013.0 |
| 20260508054526 | 44 | 306 | 1.0 | 3.0 | 0.00 | 0.00 | 0.00 | 49 | 1013.1 |
| 20260508053026 | 44 | 311 | 0.0 | 2.0 | 0.00 | 0.00 | 0.00 | 48 | 1013.0 |
| 20260508051524 | 44 | 311 | 0.0 | 0.0 | 0.00 | 0.00 | 0.00 | 48 | 1013.2 |
| 20260508050022 | 44 | 311 | 0.0 | 2.0 | 0.00 | 0.00 | 0.00 | 48 | 1013.1 |
| 20260508044527 | 45 | 311 | 0.0 | 2.0 | 0.00 | 0.00 | 0.00 | 46 | 1013.3 |
| 20260508043020 | 46 | 311 | 0.0 | 2.0 | 0.00 | 0.00 | 0.00 | 44 | 1013.1 |
| 20260508041514 | 47 | 311 | 0.0 | 2.0 | 0.00 | 0.00 | 0.00 | 44 | 1012.9 |
| 20260508040011 | 47 | 311 | 1.0 | 2.0 | 0.00 | 0.00 | 0.00 | 44 | 1013.1 |
| 20260508034511 | 47 | 311 | 0.0 | 3.0 | 0.00 | 0.00 | 0.00 | 45 | 1012.9 |
| 20260508033010 | 47 | 311 | 0.0 | 0.0 | 0.00 | 0.00 | 0.00 | 43 | 1012.8 |
| 20260508031510 | 48 | 311 | 0.0 | 1.0 | 0.00 | 0.00 | 0.00 | 43 | 1012.9 |
| 20260508030010 | 48 | 311 | 0.0 | 2.0 | 0.00 | 0.00 | 0.00 | 43 | 1012.9 |
| 20260508024512 | 48 | 311 | 1.0 | 4.0 | 0.00 | 0.00 | 0.00 | 42 | 1013.1 |
| 20260508023008 | 49 | 311 | 0.0 | 3.0 | 0.00 | 0.00 | 0.00 | 42 | 1012.9 |
| 20260508021507 | 49 | 311 | 1.0 | 5.0 | 0.00 | 0.00 | 0.00 | 40 | 1012.6 |
| 20260508020007 | 49 | 317 | 1.0 | 4.0 | 0.00 | 0.00 | 0.00 | 39 | 1012.5 |
| 20260508014508 | 50 | 282 | 2.0 | 7.0 | 0.00 | 0.00 | 0.00 | 38 | 1012.5 |
| 20260508013006 | 50 | 329 | 2.0 | 4.0 | 0.00 | 0.00 | 0.00 | 37 | 1012.4 |
| 20260508011505 | 51 | 312 | 2.0 | 8.0 | 0.00 | 0.00 | 0.00 | 35 | 1012.1 |
| 20260508010004 | 51 | 321 | 2.0 | 11.0 | 0.00 | 0.00 | 0.00 | 34 | 1011.8 |
| 20260508004504 | 52 | 323 | 5.0 | 10.0 | 0.00 | 0.00 | 0.00 | 33 | 1011.5 |
| 20260508003002 | 53 | 304 | 5.0 | 15.0 | 0.00 | 0.00 | 0.00 | 32 | 1011.2 |
| 20260508001502 | 54 | 298 | 7.0 | 15.0 | 0.00 | 0.00 | 0.00 | 32 | 1011.0 |
| 20260508000002 | 54 | 314 | 7.0 | 15.0 | 0.00 | 0.00 | 0.00 | 31 | 1010.7 |
| 20260507234501 | 55 | 286 | 7.0 | 14.0 | 0.00 | 0.00 | 0.00 | 30 | 1010.6 |
| 20260507233100 | 56 | 325 | 6.0 | 17.0 | 0.00 | 0.00 | 0.00 | 30 | 1010.5 |
| 20260507231601 | 56 | 327 | 8.0 | 19.0 | 0.00 | 0.00 | 0.00 | 29 | 1010.3 |
| 20260507230105 | 57 | 279 | 7.0 | 12.0 | 0.00 | 0.00 | 0.00 | 27 | 1010.2 |
| 20260507224608 | 58 | 316 | 8.0 | 16.0 | 0.00 | 0.00 | 0.00 | 26 | 1009.9 |
| 20260507223057 | 58 | 267 | 6.0 | 13.0 | 0.00 | 0.00 | 0.00 | 28 | 1010.0 |
| 20260507221559 | 57 | 300 | 7.0 | 15.0 | 0.00 | 0.00 | 0.00 | 27 | 1009.8 |
| 20260507220056 | 57 | 236 | 6.0 | 13.0 | 0.00 | 0.00 | 0.00 | 27 | 1009.7 |
| 20260507214605 | 58 | 289 | 7.0 | 19.0 | 0.00 | 0.00 | 0.00 | 26 | 1009.4 |
| 20260507213057 | 58 | 300 | 8.0 | 19.0 | 0.00 | 0.00 | 0.00 | 24 | 1009.2 |
| 20260507211556 | 58 | 355 | 4.0 | 12.0 | 0.00 | 0.00 | 0.00 | 26 | 1009.5 |
| 20260507210100 | 58 | 277 | 10.0 | 15.0 | 0.00 | 0.00 | 0.00 | 26 | 1009.2 |
| 20260507204553 | 58 | 269 | 4.0 | 16.0 | 0.00 | 0.00 | 0.00 | 26 | 1009.2 |
| 20260507203106 | 58 | 307 | 9.0 | 16.0 | 0.00 | 0.00 | 0.00 | 25 | 1009.1 |
| 20260507201559 | 58 | 281 | 6.0 | 16.0 | 0.00 | 0.00 | 0.00 | 26 | 1009.1 |
| 20260507200104 | 58 | 290 | 7.0 | 17.0 | 0.00 | 0.00 | 0.00 | 26 | 1009.3 |
| 20260507194549 | 57 | 268 | 3.0 | 17.0 | 0.00 | 0.00 | 0.00 | 27 | 1009.5 |
| 20260507193049 | 58 | 227 | 4.0 | 18.0 | 0.00 | 0.00 | 0.00 | 26 | 1009.6 |
| 20260507191547 | 58 | 314 | 7.0 | 19.0 | 0.00 | 0.00 | 0.00 | 26 | 1009.8 |
| 20260507190048 | 58 | 263 | 6.0 | 16.0 | 0.00 | 0.00 | 0.00 | 27 | 1009.7 |
| 20260507184551 | 57 | 274 | 5.0 | 16.0 | 0.00 | 0.00 | 0.00 | 29 | 1009.7 |
| 20260507183047 | 58 | 231 | 11.0 | 21.0 | 0.00 | 0.00 | 0.00 | 27 | 1009.8 |
| 20260507181539 | 58 | 176 | 11.0 | 17.0 | 0.00 | 0.00 | 0.00 | 28 | 1010.0 |
| 20260507180040 | 57 | 291 | 9.0 | 15.0 | 0.00 | 0.00 | 0.00 | 30 | 1010.3 |
| 20260507174538 | 58 | 267 | 4.0 | 10.0 | 0.00 | 0.00 | 0.00 | 31 | 1010.3 |
| 20260507173036 | 57 | 282 | 6.0 | 12.0 | 0.00 | 0.00 | 0.00 | 32 | 1010.6 |
| 20260507171633 | 57 | 246 | 5.0 | 12.0 | 0.00 | 0.00 | 0.00 | 32 | 1010.6 |
| 20260507170036 | 57 | 212 | 3.0 | 10.0 | 0.00 | 0.00 | 0.00 | 34 | 1010.8 |
| 20260507164531 | 56 | 315 | 7.0 | 16.0 | 0.00 | 0.00 | 0.00 | 32 | 1010.8 |
| 20260507163025 | 56 | 267 | 5.0 | 9.0 | 0.00 | 0.00 | 0.00 | 34 | 1011.2 |
| 20260507161524 | 55 | 217 | 12.0 | 19.0 | 0.00 | 0.00 | 0.00 | 33 | 1011.3 |
| 20260507160022 | 56 | 226 | 8.0 | 15.0 | 0.00 | 0.00 | 0.00 | 31 | 1011.4 |
| 20260507154520 | 56 | 296 | 7.0 | 14.0 | 0.00 | 0.00 | 0.00 | 31 | 1011.5 |